Tracking 18710 objects as of 29-June-2017
HD Live streaming from Space Station
objects crossing your sky now

BREEZE-M R/B

Track BREEZE-M R/B now!


NORAD ID: 28925
Int'l Code: 2005-052B
Perigee: 6,185.1 km
Apogee: 35,356.5 km
Inclination: 19.7 °
Period: 741.7 minutes
Semi major axis: 27141 km
RCS: 0.6439 m2 (medium)
Launch date: December 29, 2005
Source: Commonwealth of Independent States (former USSR) (CIS)
Launch site: TYURATAM MISSILE AND SPACE COMPLEX (TTMTR)

Note: This is a ROCKET BODY
Your satellite tracking list
Your tracking list is empty





NASA's NSSDC Master Catalog

Two Line Element Set (TLE):
1 28925U 05052B   17179.24256883 -.00000145 +00000-0 +00000-0 0  9992
2 28925 019.6849 356.3876 5373879 205.4422 164.5722 01.94153011081544
Source of the keplerian elements: AFSPC